This is the latest recevied weather packets stored in our database for station/object KB7STN. If no packets are shown the sender has not sent any weather packets the latest 10 day(s).
| Time | Temp. | Humidity | Pressure | Rain* | Wind** | Luminosity | Snow |
|---|---|---|---|---|---|---|---|
| 1778155633 | 8.89° C | 41% | 1011.2 hPa | 0 mm | - | - | - |
| 1778155333 | 8.89° C | 40% | 1011.1 hPa | 0 mm | - | - | - |
| 1778155033 | 8.89° C | 39% | 1011.2 hPa | 0 mm | - | - | - |
| 1778154733 | 9.44° C | 40% | 1011.2 hPa | 0 mm | - | - | - |
| 1778154433 | 9.44° C | 38% | 1011.3 hPa | 0 mm | - | - | - |
| 1778154133 | 10° C | 37% | 1011.3 hPa | 0 mm | - | - | - |
| 1778153833 | 10° C | 37% | 1011.4 hPa | 0 mm | - | - | - |
| 1778153533 | 10.56° C | 36% | 1011.6 hPa | 0 mm | - | - | - |
| 1778153233 | 10.56° C | 35% | 1011.6 hPa | 0 mm | - | - | - |
| 1778152933 | 11.11° C | 34% | 1011.7 hPa | 0 mm | - | - | - |
| 1778152633 | 11.67° C | 34% | 1011.6 hPa | 0 mm | - | - | - |
| 1778152333 | 12.22° C | 31% | 1011.6 hPa | 0 mm | - | - | - |
| 1778152033 | 12.22° C | 30% | 1011.5 hPa | 0 mm | - | - | - |
| 1778151733 | 12.22° C | 30% | 1011.5 hPa | 0 mm | - | - | - |
| 1778151433 | 12.22° C | 30% | 1011.7 hPa | 0 mm | - | - | - |
| 1778151133 | 11.67° C | 30% | 1011.7 hPa | 0 mm | - | - | - |
| 1778150833 | 11.67° C | 30% | 1011.9 hPa | 0 mm | - | - | - |
| 1778150533 | 11.67° C | 31% | 1011.7 hPa | 0 mm | - | - | - |
| 1778150233 | 11.67° C | 31% | 1011.9 hPa | 0 mm | - | - | - |
| 1778149933 | 11.67° C | 31% | 1011.9 hPa | 0 mm | - | - | - |
| 1778149633 | 11.11° C | 32% | 1011.9 hPa | 0 mm | - | - | - |
| 1778149333 | 11.11° C | 32% | 1012 hPa | 0 mm | - | - | - |
| 1778149033 | 11.11° C | 34% | 1012 hPa | 0 mm | - | - | - |
| 1778148733 | 10.56° C | 34% | 1011.9 hPa | 0 mm | - | - | - |
| 1778148433 | 10.56° C | 35% | 1011.9 hPa | 0 mm | - | - | - |
* Rain latest hour (hover to see other rain measurements)
** Current wind speed in m/s (hover to see current wind gust speed)